Location: Borotín
(49.5055°N, 14.6142°E)
Time: 11:07:10
(UTC+00:00)

Meteor 2-10 Rocket - Pass Details

Date: 27 May 2022
Orbit: 733 x 885 km, 81.2° (Epoch: 27 June)

Event Time Altitude Azimuth Distance (km) Brightness Sun altitude
Rises 00:05:36 0° 346° (NNW) 3,465 7.9 -17.7°
Reaches altitude 10° 00:08:06 10° 345° (NNW) 2,506 7.0 -17.6°
Maximum altitude 00:13:46 76° 262° (W) 865 3.6 -17.3°
Enters shadow 00:16:52 27° 180° (S) 1,536 4.5 -17.1°
